* Astronomy

Members Login
Username 
 
Password 
    Remember Me  
Post Info TOPIC: Asteroid 2012 UA34


L

Posts: 131433
Date:
Asteroid 2012 UA34
Permalink  
 


Orbital elements:
2012 UA34                                                Earth MOID = 0.0881 AU
Epoch 2012 Sept. 30.0 TT = JDT 2456200.5                MPC
M 116.12277              (2000.0)            P               Q
n   1.41655623     Peri.  222.18823     -0.49284209     +0.86296391
a   0.7851998      Node    19.14232     -0.67969586     -0.30191827
e   0.8030990      Incl.   19.85157     -0.54324968     -0.40514029
P   0.70           H   19.4           G   0.15           U   9

MPEC 2012 - U57



__________________
Page 1 of 1  sorted by
 
Quick Reply

Please log in to post quick replies.



Create your own FREE Forum
Report Abuse
Powered by ActiveBoard